FW9599 Weather Reports


Display with metric or nautical units.
time (UTC)temp
F
wind
direction
speed
MPH
gust
MPH
rain 1hr
in
rain 24hr
in
rain mn
in
humidity
%
barometer
mb
20260506061550 68 78 7.0 12.0 0.00 0.00 0.00 62 1006.4
20260506044531 71 132 2.0 7.0 0.00 0.00 0.00 57 1005.8
20260506043030 71 69 2.0 5.0 0.00 0.00 0.00 55 1005.6
20260506041529 72 63 3.0 4.0 0.00 0.00 0.00 53 1005.4
20260506040029 71 62 3.0 6.0 0.00 0.00 0.00 52 1005.2
20260506034530 71 5 2.0 8.0 0.00 0.00 0.00 54 1005.0
20260506033025 71 267 0.0 4.0 0.00 0.00 0.00 50 1005.1
20260506031525 72 266 2.0 3.0 0.00 0.00 0.00 52 1004.8
20260506030035 73 266 0.0 2.0 0.00 0.00 0.00 47 1004.9
20260506024546 74 266 0.0 3.0 0.00 0.00 0.00 41 1004.7
20260506023021 76 266 1.0 3.0 0.00 0.00 0.00 41 1004.4
20260506021521 77 267 3.0 6.0 0.00 0.00 0.00 35 1004.2
20260506020019 78 267 4.0 6.0 0.00 0.00 0.00 33 1004.1
20260506014519 80 267 3.0 6.0 0.00 0.00 0.00 29 1003.9
20260506013033 81 260 4.0 7.0 0.00 0.00 0.00 27 1003.6
20260506011519 82 246 6.0 12.0 0.00 0.00 0.00 26 1003.5
20260506010021 81 258 7.0 11.0 0.00 0.00 0.00 32 1003.4
20260506004516 82 263 5.0 8.0 0.00 0.00 0.00 32 1003.3
20260506003018 83 310 3.0 8.0 0.00 0.00 0.00 29 1003.1
20260506001520 84 304 3.0 8.0 0.00 0.00 0.00 29 1003.0
20260506000015 85 325 6.0 12.0 0.00 0.00 0.00 26 1002.7
20260505234515 86 305 10.0 16.0 0.00 0.00 0.00 26 1002.7
20260505233019 87 283 9.0 13.0 0.00 0.00 0.00 27 1002.4
20260505231514 87 277 4.0 11.0 0.00 0.00 0.00 27 1002.4
20260505230032 88 280 8.0 14.0 0.00 0.00 0.00 26 1002.4
20260505224513 88 279 9.0 19.0 0.00 0.00 0.00 25 1002.3
20260505223011 88 286 10.0 18.0 0.00 0.00 0.00 24 1002.1
20260505221511 89 269 11.0 17.0 0.00 0.00 0.00 25 1002.3
20260505220009 89 256 12.0 24.0 0.00 0.00 0.00 25 1002.4
20260505214511 90 244 8.0 18.0 0.00 0.00 0.00 25 1002.3
20260505213009 91 249 10.0 20.0 0.00 0.00 0.00 25 1002.2
20260505211508 90 259 12.0 20.0 0.00 0.00 0.00 24 1002.4
20260505210007 90 244 9.0 17.0 0.00 0.00 0.00 24 1002.5
20260505204507 91 241 10.0 17.0 0.00 0.00 0.00 24 1002.7
20260505203005 91 253 15.0 22.0 0.00 0.00 0.00 23 1002.9
20260505201507 91 267 11.0 16.0 0.00 0.00 0.00 24 1003.0
20260505200005 91 252 10.0 19.0 0.00 0.00 0.00 23 1002.9
20260505194614 90 267 11.0 17.0 0.00 0.00 0.00 24 1003.0
20260505193058 90 221 6.0 17.0 0.00 0.00 0.00 27 1003.3
20260505191559 89 242 10.0 14.0 0.00 0.00 0.00 26 1003.3
20260505190054 89 275 6.0 15.0 0.00 0.00 0.00 28 1003.3
20260505184551 89 251 5.0 10.0 0.00 0.00 0.00 31 1003.6
20260505183057 87 246 7.0 15.0 0.00 0.00 0.00 33 1003.8
20260505181545 87 275 5.0 11.0 0.00 0.00 0.00 37 1003.8
20260505180042 86 246 7.0 12.0 0.00 0.00 0.00 39 1004.2
20260505174546 85 252 9.0 15.0 0.00 0.00 0.00 40 1004.4
20260505173043 84 243 9.0 15.0 0.00 0.00 0.00 44 1004.3
20260505171534 83 249 9.0 15.0 0.00 0.00 0.00 44 1004.4
20260505170033 82 247 11.0 14.0 0.00 0.00 0.00 47 1004.3
20260505164544 82 246 9.0 16.0 0.00 0.00 0.00 51 1004.3
20260505163023 81 250 8.0 18.0 0.00 0.00 0.00 54 1004.4
20260505161521 80 235 9.0 14.0 0.00 0.00 0.00 57 1004.3
20260505153012 77 266 8.0 13.0 0.00 0.00 0.00 67 1004.4
20260505151506 75 213 8.0 14.0 0.00 0.00 0.00 71 1004.1
20260505140108 71 200 12.0 21.0 0.00 0.00 0.00 77 1003.8
20260505124547 69 175 8.0 19.0 0.00 0.00 0.00 81 1003.6
20260505123043 69 223 10.0 17.0 0.00 0.00 0.00 81 1003.3
20260505121538 69 200 8.0 17.0 0.00 0.00 0.00 81 1003.3
20260505120033 68 238 6.0 10.0 0.00 0.00 0.00 81 1003.4
20260505114538 68 235 7.0 14.0 0.00 0.00 0.00 81 1003.2
20260505113031 68 223 7.0 12.0 0.00 0.00 0.00 81 1003.0
20260505111535 68 234 3.0 9.0 0.00 0.00 0.00 80 1003.0
20260505101522 70 199 6.0 18.0 0.00 0.00 0.00 78 1002.6
20260505100021 70 210 9.0 23.0 0.00 0.00 0.00 77 1002.5
20260505094519 70 218 9.0 18.0 0.00 0.00 0.00 76 1002.4
20260505093018 70 201 10.0 23.0 0.00 0.00 0.00 76 1002.4
20260505091516 70 173 10.0 20.0 0.00 0.00 0.00 76 1002.5
20260505090019 70 214 12.0 22.0 0.00 0.00 0.00 76 1002.4
20260505084513 70 221 11.0 23.0 0.00 0.00 0.00 76 1002.4
20260505083010 71 239 14.0 26.0 0.00 0.00 0.00 75 1002.6
20260505081508 71 171 11.0 23.0 0.00 0.00 0.00 75 1002.9
20260505080006 71 206 12.0 21.0 0.00 0.00 0.00 74 1002.8
20260505074501 71 213 10.0 20.0 0.00 0.00 0.00 74 1002.9
20260505073105 71 232 12.0 21.0 0.00 0.00 0.00 74 1003.4
20260505071558 72 207 10.0 24.0 0.00 0.00 0.00 73 1003.2